GW0632 Weather Reports


time (UTC)temp
F
wind
direction
speed
knots
gust
knots
rain 1hr
in
rain 24hr
in
rain mn
in
humidity
%
barometer
mb
20260505025045 56 276 2.6 4.3 0.00 0.00 0.00 67 1013.9
20260505024541 56 313 0.9 2.6 0.00 0.00 0.00 66 1013.8
20260505024038 56 277 1.7 2.6 0.00 0.00 0.00 66 1013.8
20260505023535 56 275 2.6 5.2 0.00 0.00 0.00 66 1014.0
20260505023033 56 307 0.9 4.3 0.00 0.00 0.00 65 1014.1
20260505022530 56 301 2.6 2.6 0.00 0.00 0.00 65 1014.0
20260505022028 56 349 2.6 5.2 0.00 0.00 0.00 64 1014.2
20260505021524 56 263 2.6 6.1 0.00 0.00 0.00 63 1014.2
20260505021021 57 19 0.0 1.7 0.00 0.00 0.00 63 1014.1
20260505020520 57 187 0.9 2.6 0.00 0.00 0.00 62 1014.1
20260505020018 57 194 2.6 2.6 0.00 0.00 0.00 62 1014.1
20260505015515 57 120 0.9 5.2 0.00 0.00 0.00 61 1013.9
20260505015012 57 266 1.7 5.2 0.00 0.00 0.00 60 1013.9
20260505014509 57 258 2.6 4.3 0.00 0.00 0.00 60 1013.9
20260505014006 57 247 1.7 5.2 0.00 0.00 0.00 59 1014.0
20260505013503 57 357 0.0 4.3 0.00 0.00 0.00 59 1013.8
20260505013000 58 337 0.9 2.6 0.00 0.00 0.00 59 1013.7
20260505012458 58 289 4.3 5.2 0.00 0.00 0.00 59 1013.8
20260505011955 58 282 2.6 7.0 0.00 0.00 0.00 58 1013.7
20260505011450 58 214 5.2 7.0 0.00 0.00 0.00 58 1013.5
20260505010948 58 321 2.6 2.6 0.00 0.00 0.00 58 1013.7
20260505010443 58 60 0.0 4.3 0.00 0.00 0.00 57 1013.4
20260505005939 58 246 2.6 6.1 0.00 0.00 0.00 57 1013.4
20260505005436 59 203 1.7 4.3 0.00 0.00 0.00 56 1013.2
20260505004934 59 198 0.9 2.6 0.00 0.00 0.00 55 1013.1
20260505004430 60 298 1.7 5.2 0.00 0.00 0.00 54 1013.1
20260505003928 60 355 0.9 5.2 0.00 0.00 0.00 53 1012.9
20260505003425 60 253 2.6 7.8 0.00 0.00 0.00 53 1012.9
20260505002921 60 263 2.6 5.2 0.00 0.00 0.00 52 1012.6
20260505002417 60 347 1.7 5.2 0.00 0.00 0.00 52 1012.5
20260505001916 60 282 1.7 5.2 0.00 0.00 0.00 51 1012.6
20260505001413 61 266 2.6 7.0 0.00 0.00 0.00 51 1012.3
20260505000910 61 235 6.1 8.7 0.00 0.00 0.00 50 1012.1
20260505000408 61 244 4.3 6.1 0.00 0.00 0.00 50 1012.1
20260504235904 61 150 5.2 17.4 0.00 0.00 0.00 50 1012.2
20260504235402 62 224 3.5 7.0 0.00 0.00 0.00 50 1012.3
20260504234857 62 147 1.7 6.1 0.00 0.00 0.00 49 1011.8
20260504234355 62 291 3.5 7.8 0.00 0.00 0.00 49 1011.9
20260504233852 62 226 2.6 7.8 0.00 0.00 0.00 48 1011.8
20260504233347 63 230 12.2 14.8 0.00 0.00 0.00 48 1011.7
20260504232844 63 244 5.2 13.0 0.00 0.00 0.00 48 1011.5
20260504232342 63 265 7.0 8.7 0.00 0.00 0.00 47 1011.6
20260504231838 63 281 5.2 13.0 0.00 0.00 0.00 47 1011.4
20260504231335 64 242 2.6 6.1 0.00 0.00 0.00 47 1011.3
20260504230831 64 259 7.0 9.6 0.00 0.00 0.00 46 1011.4
20260504230329 64 269 7.8 19.1 0.00 0.00 0.00 46 1011.4
20260504225827 65 279 4.3 13.9 0.00 0.00 0.00 46 1011.1
20260504225323 65 279 5.2 12.2 0.00 0.00 0.00 46 1011.0
20260504224821 65 286 7.0 13.9 0.00 0.00 0.00 45 1011.1
20260504224318 65 217 6.1 9.6 0.00 0.00 0.00 45 1011.1
20260504223815 66 244 7.0 9.6 0.00 0.00 0.00 45 1010.8
20260504223310 66 232 6.1 7.8 0.00 0.00 0.00 45 1011.1
20260504222807 66 230 5.2 8.7 0.00 0.00 0.00 44 1010.8
20260504222305 67 174 1.7 7.8 0.00 0.00 0.00 43 1010.7
20260504221802 67 260 7.0 11.3 0.00 0.00 0.00 42 1010.8
20260504221258 67 193 6.1 15.6 0.00 0.00 0.00 42 1010.8
20260504220755 68 280 6.1 7.8 0.00 0.00 0.00 41 1010.6
20260504220252 68 231 10.4 13.9 0.00 0.00 0.00 40 1010.7
20260504215749 68 233 5.2 11.3 0.00 0.00 0.00 40 1010.6
20260504215246 69 267 7.8 15.6 0.00 0.00 0.00 40 1010.6
20260504214742 69 263 7.0 9.6 0.00 0.00 0.00 39 1010.4
20260504214238 68 324 7.0 13.0 0.00 0.00 0.00 39 1010.6
20260504213735 69 262 6.1 7.8 0.00 0.00 0.00 38 1010.8
20260504213232 68 18 3.5 8.7 0.00 0.00 0.00 39 1010.6
20260504212729 69 283 10.4 15.6 0.00 0.00 0.00 38 1010.8
20260504212225 69 253 4.3 12.2 0.00 0.00 0.00 37 1010.7
20260504211723 69 193 3.5 8.7 0.00 0.00 0.00 37 1010.5
20260504211219 70 217 6.1 11.3 0.00 0.00 0.00 36 1010.4
20260504210717 70 282 4.3 11.3 0.00 0.00 0.00 35 1010.4
20260504210214 71 193 6.1 11.3 0.00 0.00 0.00 35 1010.3
20260504205710 71 252 6.1 8.7 0.00 0.00 0.00 34 1010.5
20260504205208 71 296 6.1 7.8 0.00 0.00 0.00 33 1010.2
20260504204706 71 245 7.8 11.3 0.00 0.00 0.00 33 1010.3
20260504204205 71 238 6.1 8.7 0.00 0.00 0.00 34 1010.3
20260504203703 70 325 2.6 7.8 0.00 0.00 0.00 34 1010.2
20260504203201 71 269 5.2 13.0 0.00 0.00 0.00 33 1010.4
20260504202700 71 295 5.2 11.3 0.00 0.00 0.00 34 1010.3
20260504202158 71 222 6.1 11.3 0.00 0.00 0.00 32 1010.2
20260504201654 71 251 2.6 14.8 0.00 0.00 0.00 33 1010.4
20260504201152 72 290 5.2 8.7 0.00 0.00 0.00 32 1010.4
20260504200649 71 6 4.3 9.6 0.00 0.00 0.00 32 1010.5
20260504200146 71 276 7.8 11.3 0.00 0.00 0.00 33 1010.6
20260504195641 70 271 2.6 8.7 0.00 0.00 0.00 33 1010.5
20260504195138 70 248 7.8 11.3 0.00 0.00 0.00 32 1010.6
20260504194635 71 265 11.3 13.9 0.00 0.00 0.00 31 1010.6
20260504194131 71 250 10.4 13.0 0.00 0.00 0.00 30 1010.5
20260504193627 71 321 1.7 5.2 0.00 0.00 0.00 31 1010.6
20260504193126 70 269 6.1 14.8 0.00 0.00 0.00 32 1010.8
20260504192623 71 222 2.6 9.6 0.00 0.00 0.00 33 1010.6
20260504192121 70 193 3.5 12.2 0.00 0.00 0.00 32 1010.6
20260504191619 70 272 5.2 15.6 0.00 0.00 0.00 31 1010.7
20260504191115 70 275 5.2 11.3 0.00 0.00 0.00 32 1010.5
20260504190611 71 289 4.3 8.7 0.00 0.00 0.00 32 1010.4
20260504190108 71 249 8.7 12.2 0.00 0.00 0.00 31 1010.7
20260504185605 70 242 7.0 11.3 0.00 0.00 0.00 30 1010.8
20260504185101 69 201 7.8 12.2 0.00 0.00 0.00 30 1010.7
20260504184557 71 348 3.5 9.6 0.00 0.00 0.00 30 1010.7
20260504184052 70 259 5.2 9.6 0.00 0.00 0.00 32 1010.8
20260504183549 70 287 12.2 17.4 0.00 0.00 0.00 32 1010.8
20260504183048 70 327 5.2 11.3 0.00 0.00 0.00 32 1010.6
20260504182544 70 195 2.6 18.2 0.00 0.00 0.00 32 1011.0
20260504182042 70 235 4.3 14.8 0.00 0.00 0.00 32 1010.9
20260504181539 69 248 9.6 14.8 0.00 0.00 0.00 31 1011.0
20260504181037 69 300 4.3 7.0 0.00 0.00 0.00 32 1011.3
20260504180536 69 310 5.2 8.7 0.00 0.00 0.00 33 1011.3
20260504180034 68 258 7.0 13.9 0.00 0.00 0.00 32 1011.2
20260504175531 68 240 9.6 14.8 0.00 0.00 0.00 32 1011.6
20260504175028 69 254 8.7 12.2 0.00 0.00 0.00 32 1011.3
20260504174526 68 353 4.3 15.6 0.00 0.00 0.00 33 1011.4
20260504174022 68 244 6.1 14.8 0.00 0.00 0.00 33 1011.2
20260504173519 68 284 7.0 12.2 0.00 0.00 0.00 33 1011.3
20260504173017 69 244 5.2 11.3 0.00 0.00 0.00 32 1011.5
20260504172513 69 249 7.8 18.2 0.00 0.00 0.00 32 1011.5
20260504172009 69 269 5.2 12.2 0.00 0.00 0.00 32 1011.4
20260504171506 69 268 6.1 8.7 0.00 0.00 0.00 32 1011.3
20260504171003 68 298 1.7 11.3 0.00 0.00 0.00 34 1011.4
20260504170459 68 341 5.2 13.9 0.00 0.00 0.00 34 1011.5
20260504160419 67 270 7.8 13.0 0.00 0.00 0.00 34 1012.4
20260504150843 65 257 4.3 17.4 0.00 0.00 0.00 38 1013.2
20260504150339 65 247 6.1 13.0 0.00 0.00 0.00 36 1012.9
20260504141309 63 220 7.8 13.0 0.00 0.00 0.00 39 1013.2
20260504140806 62 308 5.2 13.9 0.00 0.00 0.00 40 1013.4
20260504140302 62 256 7.8 11.3 0.00 0.00 0.00 40 1013.4
20260504130731 58 282 3.5 7.8 0.00 0.00 0.00 46 1014.0
20260504130226 58 295 3.5 6.1 0.00 0.00 0.00 46 1014.0
20260504120150 50 329 1.7 5.2 0.00 0.00 0.00 56 1014.3
20260504110618 48 337 1.7 4.3 0.00 0.00 0.00 57 1014.4
20260504110114 48 286 1.7 1.7 0.00 0.00 0.00 58 1014.5
20260504100539 45 330 2.6 2.6 0.00 0.00 0.00 60 1014.2
20260504081933 45 274 1.7 5.2 0.00 0.00 0.00 58 1013.9
20260504081430 45 252 2.6 4.3 0.00 0.00 0.00 57 1013.8
20260504080926 45 225 2.6 4.3 0.00 0.00 0.00 57 1014.0
20260504080423 45 335 0.9 1.7 0.00 0.00 0.00 58 1013.9
20260504070350 45 215 2.6 2.6 0.00 0.00 0.00 56 1013.8
20260504050738 44 344 0.9 1.7 0.00 0.00 0.00 59 1013.8
20260504050235 43 296 0.9 1.7 0.00 0.00 0.00 60 1013.7
20260504045732 42 325 0.9 1.7 0.00 0.00 0.00 63 1014.2
20260504045227 43 3 0.0 0.9 0.00 0.00 0.00 60 1013.8
20260504044725 43 2 0.0 0.9 0.00 0.00 0.00 59 1013.9
20260504044222 43 343 0.0 1.7 0.00 0.00 0.00 60 1013.7
20260504043719 43 25 0.9 1.7 0.00 0.00 0.00 58 1013.9
20260504043216 43 321 0.9 1.7 0.00 0.00 0.00 60 1013.7
20260504042714 43 313 0.9 2.6 0.00 0.00 0.00 59 1013.6
20260504042210 43 305 0.9 2.6 0.00 0.00 0.00 60 1013.8
20260504041706 42 329 0.9 2.6 0.00 0.00 0.00 61 1013.9
20260504041202 42 319 0.9 2.6 0.00 0.00 0.00 60 1013.7
20260504040659 43 334 0.9 1.7 0.00 0.00 0.00 60 1013.9
20260504040156 42 282 1.7 2.6 0.00 0.00 0.00 60 1013.5
20260504035652 42 324 0.9 0.9 0.00 0.00 0.00 62 1013.6
20260504035150 42 341 0.9 1.7 0.00 0.00 0.00 62 1013.5
20260504034647 43 328 0.9 2.6 0.00 0.00 0.00 61 1013.6
20260504034144 43 347 0.9 2.6 0.00 0.00 0.00 61 1013.7
20260504033642 43 274 2.6 2.6 0.00 0.00 0.00 60 1013.6
20260504033139 43 331 0.9 1.7 0.00 0.00 0.00 60 1013.5
20260504032635 42 334 0.9 2.6 0.00 0.00 0.00 61 1013.5
20260504032132 43 1 0.0 2.6 0.00 0.00 0.00 60 1013.5
20260504031630 43 302 1.7 1.7 0.00 0.00 0.00 61 1013.4
20260504031126 42 293 2.6 4.3 0.00 0.00 0.00 62 1013.5
20260504030623 42 346 0.9 0.9 0.00 0.00 0.00 62 1013.4
20260504030119 43 341 0.9 1.7 0.00 0.00 0.00 60 1013.4
20260504025616 42 321 0.9 2.6 0.00 0.00 0.00 62 1013.1